# Land Stadt Wetter Temperatur Luftdruck Luftfeuchtigkeit Sichtweite Windgeschwindigkeit Windrichtung Ortszeit
1 et Addis Abeba Clouds 25 1027 27 10000 21 110 02.08.2018 14:23
2 tr Alanya Clouds 15 1015 51 10000 18 310 02.08.2018 14:22
3 au Alice Springs Clouds 22 1018 33 10000 17 120 02.08.2018 14:21
4 ru Amderma Clouds -10 1008 94 0 1 50 02.08.2018 14:23
5 ru Anadyr Clouds -17 1013 77 10000 7 226 02.08.2018 14:23
6 ch Andermatt Clouds 14 1027 30 10000 1 203 02.08.2018 14:23
7 ad Andorra la Vella Clouds 13 1024 78 0 6 208 02.08.2018 14:22
8 tr Ankara Clouds 11 1018 29 10000 17 40 02.08.2018 14:23
9 mg Antananarivo Clouds 26 1023 57 10000 5 0 02.08.2018 14:21
10 gr Athen Clouds 14 1021 41 10000 37 360 02.08.2018 14:22
11 ck Avarua Clouds 28 1013 83 10000 17 50 02.08.2018 14:22
12 iq Bagdad Clouds 29 1010 32 10000 15 40 02.08.2018 14:22
13 th Bangkok Clouds 35 1008 41 10000 21 200 02.08.2018 14:21
14 es Barcelona Clouds 16 1026 59 10000 5 340 02.08.2018 14:22
15 de Berlin Clear 16 1029 41 10000 13 150 02.08.2018 14:21
16 ch Bern Clear 15 1027 48 10000 4 0 02.08.2018 14:23
17 fr Bordeaux Clouds 15 1024 76 10000 8 120 02.08.2018 14:21
18 de Braunschweig Clear 17 1027 55 10000 8 130 02.08.2018 14:21
19 de Bremen Clouds 16 1026 58 10000 13 160 02.08.2018 14:22
20 ar Buenos Aires Clear 9 1026 71 10000 4 200 02.08.2018 14:22
21 ma Casablanca Clouds 19 1018 82 5000 9 20 02.08.2018 14:23
22 us Chicago Mist 11 1007 93 9656 11 80 02.08.2018 14:23
23 pe Cusco Clouds 9 1021 30 0 1 262 02.08.2018 14:23
24 au Darwin Clouds 29 1009 70 10000 9 20 02.08.2018 14:22
25 us Death Valley Rain 16 1013 58 0 1 10 02.08.2018 14:22
26 us Denver Clear 7 1017 38 16093 11 150 02.08.2018 14:21
27 qa Doha Clear 37 1010 11 10000 21 180 02.08.2018 14:23
28 de Dresden Clear 18 1028 17 10000 21 140 02.08.2018 14:22
29 ae Dubai Clear 35 1011 16 10000 5 20 02.08.2018 14:21
30 ie Dublin Clouds 12 1025 58 10000 8 180 02.08.2018 14:21
31 de Emden Clouds 17 1025 55 10000 4 0 02.08.2018 14:21
32 ar Esquel Clear 1 1020 100 10000 4 44 02.08.2018 14:22
33 us Fairbanks Clear -13 1014 66 16093 9 80 02.08.2018 14:23
34 de Flensburg Clouds 13 1027 50 0 15 150 02.08.2018 14:21
35 de Frankfurt Clear 18 1026 42 10000 8 80 02.08.2018 14:22
36 de Freiburg Clear 18 1026 42 10000 2 0 02.08.2018 14:22
37 gb Glasgow Clouds 12 1024 76 10000 21 210 02.08.2018 14:21
38 de Hamburg Clouds 16 1026 51 10000 21 150 02.08.2018 14:21
39 no Hammerfest Clouds 2 995 80 10000 15 230 02.08.2018 14:22
40 de Hannover Clouds 17 1026 52 10000 11 150 02.08.2018 14:21
41 vn Hanoi Haze 23 1014 69 5000 5 300 02.08.2018 14:21
42 de Helgoland Clouds 14 1026 50 10000 17 150 02.08.2018 14:22
43 fi Helsinki Clear 10 1024 43 10000 21 220 02.08.2018 14:21
44 de Hiddensee Clouds 14 1033 57 0 2 135 02.08.2018 14:21
45 sb Honiara Clouds 26 1009 88 10000 4 140 02.08.2018 14:22
46 us Honolulu Clouds 22 1016 73 16093 3 287 02.08.2018 14:22
47 at Innsbruck Clear 15 1027 44 10000 13 270 02.08.2018 14:23
48 tr Istanbul Clouds 11 1024 54 10000 31 40 02.08.2018 14:23
49 in Jagatsukh Clouds 14 1017 17 0 5 228 02.08.2018 14:22
50 id Jakarta Clouds 32 1007 62 6000 12 335 02.08.2018 14:22
51 ru Jakutsk Clouds 9 1023 29 10000 11 290 02.08.2018 14:22
52 af Kabul Clouds 17 1021 48 10000 9 30 02.08.2018 14:21
53 eg Kairo Clouds 20 1017 42 6000 8 330 02.08.2018 14:22
54 za Kapstadt Clouds 19 1020 42 10000 4 0 02.08.2018 14:22
55 de Kassel Clouds 17 1027 51 10000 8 100 02.08.2018 14:21
56 ua Kiew Clear 18 1025 23 10000 25 290 02.08.2018 14:21
57 cd Kisangani Rain 33 1011 47 0 6 150 02.08.2018 14:23
58 de Köln Clear 19 1026 48 10000 13 160 02.08.2018 14:21
59 bo La Paz Clouds 0 1039 28 10000 5 100 02.08.2018 14:22
60 es Las Palmas de Gran Canaria Clouds 22 1020 68 10000 33 20 02.08.2018 14:21
61 us Las Vegas Clear 11 1014 62 16093 8 210 02.08.2018 14:21
62 cn Lhasa Clouds 11 1009 9 0 5 171 02.08.2018 14:22
63 pt Lissabon Clouds 16 1021 100 6000 8 90 02.08.2018 14:22
64 gb London Clouds 15 1025 55 10000 9 100 02.08.2018 14:22
65 us Los Angeles Rain 9 1016 76 16093 9 164 02.08.2018 14:22
66 es Madrid Clouds 15 1024 71 10000 13 120 02.08.2018 14:23
67 de Magdeburg Clear 16 1028 54 0 13 125 02.08.2018 14:22
68 it Mailand Clear 18 1028 42 10000 8 160 02.08.2018 14:21
69 mv Male Clouds 32 1012 66 10000 9 290 02.08.2018 14:23
70 br Manaus Clouds 26 1011 94 10000 4 140 02.08.2018 14:21
71 gb Manchester Clouds 14 1026 62 10000 4 0 02.08.2018 14:21
72 ph Manila Clouds 32 1009 62 10000 13 110 02.08.2018 14:21
73 ma Marrakesch Clouds 22 1018 56 0 4 0 02.08.2018 14:23
74 mx Mexiko Stadt Clouds 16 1027 42 16093 6 188 02.08.2018 14:21
75 us Miami Clouds 24 1014 83 16093 10 165 02.08.2018 14:23
76 uy Montevideo Clouds 13 1024 62 10000 13 200 02.08.2018 14:22
77 ca Montreal Clear 0 1003 68 14484 21 20 02.08.2018 14:22
78 ru Moskau Clouds 12 1015 73 10000 22 330 02.08.2018 14:22
79 in Mumbai Smoke 31 1012 62 5000 21 260 02.08.2018 14:22
80 de München Clear 16 1026 41 10000 11 260 02.08.2018 14:21
81 jp Nagasaki Clouds 15 1017 58 10000 26 340 02.08.2018 14:21
82 in Nagpur Haze 38 1009 14 5000 5 250 02.08.2018 14:21
83 ke Nairobi Clouds 24 1023 57 10000 15 50 02.08.2018 14:22
84 bs Nassau Clouds 23 1015 88 10000 8 140 02.08.2018 14:22
85 us New York Rain 11 1000 87 14484 8 260 02.08.2018 14:22
86 fr Nizza Clear 19 1026 36 10000 5 300 02.08.2018 14:22
87 us Nome Clear -23 1016 76 16093 3 304 02.08.2018 14:23
88 de Nürnberg Clear 16 1026 34 10000 5 170 02.08.2018 14:21
89 gl Nuuk Clouds -6 1019 67 10000 22 60 02.08.2018 14:22
90 de Oberstdorf Clear 16 1027 54 10000 5 290 02.08.2018 14:21
91 no Oslo Clouds 8 1020 54 10000 21 180 02.08.2018 14:23
92 it Palermo Clear 16 1025 63 10000 8 260 02.08.2018 14:22
93 es Palma de Mallorca Clouds 18 1027 39 10000 8 80 02.08.2018 14:22
94 fr Paris Clouds 17 1024 48 10000 5 120 02.08.2018 14:22
95 cn Peking Clouds 17 1020 19 10000 14 150 02.08.2018 14:23
96 au Perth Clear 27 1011 30 10000 21 240 02.08.2018 14:21
97 pg Port Moresby Clouds 28 1009 83 10000 37 140 02.08.2018 14:21
98 bo Potisi Clouds 5 1020 28 0 3 319 02.08.2018 14:22
99 is Reykjavik Clear -3 1016 68 10000 8 130 02.08.2018 14:22
100 sa Riad Dust 36 1013 13 1000 24 190 02.08.2018 14:21
101 br Rio de Janeiro Rain 21 1014 94 6000 15 200 02.08.2018 14:22
102 it Rom Clear 18 1026 51 10000 5 0 02.08.2018 14:23
103 fi Rovaniemi Clouds 4 1005 64 10000 28 210 02.08.2018 14:21
104 ec San Cristobal Clouds 26 1010 83 0 8 64 02.08.2018 14:22
105 cl Santiago Clear 11 1013 57 10000 1 21 02.08.2018 14:23
106 do Santo Domingo Rain 24 1016 100 0 9 15 02.08.2018 14:21
107 kr Seoul Clear 12 1017 24 10000 19 303 02.08.2018 14:21
108 es Sevilla Clouds 18 1021 77 10000 4 0 02.08.2018 14:22
109 cn Shanghai Clouds 21 1017 21 10000 18 120 02.08.2018 14:21
110 bg Sofia Clear 10 1029 27 10000 15 120 02.08.2018 14:21
111 se Stockholm Clouds 10 1024 53 10000 21 230 02.08.2018 14:23
112 de Stuttgart Clear 17 1026 38 10000 5 0 02.08.2018 14:22
113 ru Surgut Snow -2 985 86 2200 36 190 02.08.2018 14:23
114 fj Suva Rain 25 1006 90 0 21 254 02.08.2018 14:21
115 au Sydney Rain 17 1023 88 10000 22 190 02.08.2018 14:22
116 es Tarifa Clouds 17 1023 77 10000 33 80 02.08.2018 14:21
117 jp Tokio Clouds 17 1010 63 10000 18 160 02.08.2018 14:22
118 de Torfhaus Clear 17 1027 55 10000 8 130 02.08.2018 14:22
119 de Trier Clear 18 1026 42 10000 11 160 02.08.2018 14:21
120 us Tucson Clear 14 1017 47 16093 11 120 02.08.2018 14:21
121 mn Ulaanbaatar Clouds 8 1021 19 10000 7 290 02.08.2018 14:23
122 mn Uliastai Clear 6 1016 30 0 5 357 02.08.2018 14:23
123 ar Ushuaia Clouds 16 1002 55 10000 33 360 02.08.2018 14:22
124 mx Veracruz Clear 24 1009 100 0 2 158 02.08.2018 14:21
125 bg Warna Clear 14 1028 31 10000 28 70 02.08.2018 14:21
126 nz Wellington Clouds 13 1008 87 10000 17 20 02.08.2018 14:23
127 ru Werchojansk Snow 0 1021 88 0 17 30 02.08.2018 14:22
128 at Wien Clear 17 1029 21 10000 30 130 02.08.2018 14:22